"Pseudo-MPEC" for ZTF03cB

Created 2019 Jun 14 4:10:15 UT using Find_Orb

Click here for an explanation of pseudo-MPECs

 
 Astrometry: 
     ZTF03cB  C2019 06 07.33450917 52 47.80 -03 29 54.8    ~67JM 19.05RUNEOCPI41
     ZTF03cB  C2019 06 07.33732217 52 54.12 -03 24 43.7    ~67IM 18.74RUNEOCPI41
     ZTF03cB  C2019 06 07.33766917 52 54.96 -03 24 04.6    ~67IM 18.74RUNEOCPI41
     ZTF03cB  C2019 06 07.36767317 54 00.88 -02 29 42.3    ~67IM 18.92RUNEOCPI41
     ZTF03cB  C2019 06 07.38616917 54 40.34 -01 57 37.1    ~67IM 18.71RUNEOCPI41
     ZTF03cB  C2019 06 07.38651617 54 41.03 -01 57 01.4    ~67IM 18.71RUNEOCPI41
     ZTF03cB  C2019 06 07.39793217 55 04.66 -01 37 43.3    ~67JM 19.12RUNEOCPI41
     ZTF03cB  C2019 06 07.39827917 55 05.41 -01 37 09.9    ~67JM 19.12RUNEOCPI41

Station data:
(I41) Palomar Mountain--ZTF  (N33.357340 W116.859780)  US/California. 1.2-m
   f/2.44 Oschin Schmidt + CCD.

Orbital elements:  ZTF03cB
   Perigee 2019 Jun 6.503981 +/- 0.0387 TT = 12:05:44 (JD 2458641.003981)
Epoch 2019 Jun  7.0 TT = JDT 2458641.5                        AutoNEOCP
q102509.180 +/- 62934               (J2000 equator)
H   32.3  G 0.15                    Peri.  278.82827 +/- 40
                                    Node   269.51870 +/- 3.0
e   2.2536460 +/- 1.53              Incl.   58.92420 +/- 5.0
From 8 observations 2019 June 7 (91.8 min); mean residual 1".43
Residuals in arcseconds: 
190607 I41  1.5+  1.6+    190607 I41  4.0-  1.2+    190607 I41  .74-  .76+    
190607 I41  .60-  1.8-    190607 I41  1.5+  .10-    190607 I41  .28-  .65-    
190607 I41  .10+  1.4-    190607 I41  1.0+  .05+    

Ephemerides (geocentric):
Date (UTC) HH   RA              Dec         delta   r     elong  mag " sig PA
---- -- -- --  -------------   -----------  ------ ------ -----  --- ---- ---
2019 06 14 04  19 03 15.699   +24 39 01.37  .01090 1.0222 126.8 24.4 887'  52
2019 06 14 05  19 03 19.936   +24 40 16.21  .01096 1.0222 126.8 24.5 891'  52
2019 06 14 06  19 03 24.130   +24 41 30.17  .01101 1.0223 126.8 24.5 896'  52
2019 06 14 07  19 03 28.282   +24 42 43.28  .01107 1.0223 126.8 24.5 900'  52
2019 06 14 08  19 03 32.393   +24 43 55.55  .01113 1.0223 126.8 24.5 905'  52
2019 06 14 09  19 03 36.462   +24 45 06.98  .01118 1.0224 126.8 24.5 909'  52
2019 06 14 10  19 03 40.491   +24 46 17.60  .01124 1.0224 126.8 24.5 914'  52
2019 06 14 11  19 03 44.480   +24 47 27.40  .01129 1.0224 126.7 24.5 918'  52
2019 06 14 12  19 03 48.430   +24 48 36.41  .01135 1.0225 126.7 24.5 923'  52
2019 06 14 13  19 03 52.341   +24 49 44.64  .01140 1.0225 126.7 24.5 927'  52
2019 06 14 14  19 03 56.213   +24 50 52.10  .01146 1.0225 126.7 24.6 932'  52
2019 06 14 15  19 04 00.048   +24 51 58.79  .01151 1.0226 126.7 24.6 936'  52
2019 06 14 16  19 04 03.845   +24 53 04.73  .01157 1.0226 126.7 24.6 941'  52
2019 06 14 17  19 04 07.605   +24 54 09.93  .01162 1.0227 126.7 24.6 945'  52
2019 06 14 18  19 04 11.329   +24 55 14.41  .01168 1.0227 126.7 24.6 950'  52
2019 06 14 19  19 04 15.017   +24 56 18.16  .01174 1.0227 126.7 24.6 954'  52
2019 06 14 20  19 04 18.670   +24 57 21.20  .01179 1.0228 126.7 24.6 959'  52
2019 06 14 21  19 04 22.288   +24 58 23.55  .01185 1.0228 126.7 24.6 963'  52
2019 06 14 22  19 04 25.871   +24 59 25.20  .01190 1.0228 126.7 24.6 968'  52
2019 06 14 23  19 04 29.419   +25 00 26.17  .01196 1.0229 126.7 24.6 972'  52
2019 06 15 00  19 04 32.935   +25 01 26.47  .01201 1.0229 126.7 24.7 977'  51
2019 06 15 01  19 04 36.416   +25 02 26.11  .01207 1.0229 126.7 24.7 981'  51
2019 06 15 02  19 04 39.865   +25 03 25.09  .01212 1.0230 126.7 24.7 986'  51
2019 06 15 03  19 04 43.282   +25 04 23.43  .01218 1.0230 126.7 24.7 990'  51
2019 06 15 04  19 04 46.666   +25 05 21.13  .01223 1.0231 126.6 24.7 995'  51
2019 06 15 05  19 04 50.019   +25 06 18.20  .01229 1.0231 126.6 24.7  17d  51
2019 06 15 06  19 04 53.340   +25 07 14.66  .01234 1.0231 126.6 24.7  17d  51
2019 06 15 07  19 04 56.630   +25 08 10.50  .01240 1.0232 126.6 24.7  17d  51
2019 06 15 08  19 04 59.890   +25 09 05.74  .01246 1.0232 126.6 24.7  17d  51
2019 06 15 09  19 05 03.119   +25 10 00.38  .01251 1.0232 126.6 24.7  17d  51
2019 06 15 10  19 05 06.319   +25 10 54.44  .01257 1.0233 126.6 24.8  17d  51
2019 06 15 11  19 05 09.489   +25 11 47.91  .01262 1.0233 126.6 24.8  17d  51
2019 06 15 12  19 05 12.630   +25 12 40.81  .01268 1.0234 126.6 24.8  17d  51
2019 06 15 13  19 05 15.741   +25 13 33.14  .01273 1.0234 126.6 24.8  17d  51
2019 06 15 14  19 05 18.825   +25 14 24.91  .01279 1.0234 126.6 24.8  17d  51
2019 06 15 15  19 05 21.880   +25 15 16.14  .01284 1.0235 126.6 24.8  17d  51
2019 06 15 16  19 05 24.907   +25 16 06.81  .01290 1.0235 126.6 24.8  17d  51
2019 06 15 17  19 05 27.907   +25 16 56.95  .01295 1.0235 126.6 24.8  18d  51
2019 06 15 18  19 05 30.879   +25 17 46.55  .01301 1.0236 126.6 24.8  18d  51
2019 06 15 19  19 05 33.825   +25 18 35.63  .01306 1.0236 126.6 24.8  18d  51
2019 06 15 20  19 05 36.743   +25 19 24.19  .01312 1.0236 126.6 24.9  18d  51
2019 06 15 21  19 05 39.636   +25 20 12.24  .01317 1.0237 126.6 24.9  18d  51
2019 06 15 22  19 05 42.502   +25 20 59.78  .01323 1.0237 126.6 24.9  18d  51
2019 06 15 23  19 05 45.342   +25 21 46.82  .01328 1.0238 126.6 24.9  18d  51
2019 06 16 00  19 05 48.157   +25 22 33.36  .01334 1.0238 126.6 24.9  18d  51
2019 06 16 01  19 05 50.947   +25 23 19.42  .01339 1.0238 126.6 24.9  18d  51
2019 06 16 02  19 05 53.711   +25 24 04.99  .01345 1.0239 126.6 24.9  18d  51
2019 06 16 03  19 05 56.451   +25 24 50.08  .01350 1.0239 126.6 24.9  18d  51